Change the Weather History Date:

Monday, September 17, 2012

  Actual Average Record
Temperature  
Mean Temperature 46 °F 59 °F  
Max Temperature 58 °F 72 °F 96 °F (1955)
Min Temperature 34 °F 47 °F 28 °F (1900)
Degree Days  
Heating Degree Days 19 7  
Month to date heating degree days 66 80  
Since 1 July heating degree days 102 123  
Cooling Degree Days 0 1  
Month to date cooling degree days 43 36  
Year to date cooling degree days 705 515  
Moisture  
Dew Point 39 °F    
Average Humidity 68    
Maximum Humidity 93    
Minimum Humidity 43    
Precipitation  
Precipitation 0.14 in 0.10 in 0.65 in (1942)
Month to date precipitation 0.17 1.37  
Year to date precipitation 14.44 18.11  
Sea Level Pressure  
Sea Level Pressure 30.08 in    
Wind  
Wind Speed 8 mph (NNW)    
Max Wind Speed 29 mph    
Max Gust Speed 35 mph    
T = Trace of Precipitation, MM = Missing Value Source: NWS Daily Summary

Daily Weather History Graph

Daily Weather History Graph

Search for Another Location

Airport or City:

Trip Planner

Search our weather history database for the weather conditions in past years. The results will help you decide how hot, cold, wet, or windy it might be!

Date:

Astronomy

Sep. 17, 2012 Rise Set
Actual Time 7:09 AM CDT 7:34 PM CDT
Civil Twilight 6:39 AM CDT 8:03 PM CDT
Nautical Twilight 6:04 AM CDT 8:39 PM CDT
Astronomical Twilight 5:28 AM CDT 9:15 PM CDT
Moon 9:09 AM CDT (9/17) 8:06 PM CDT (9/17)
Length of Visible Light 13h 24m
Length of Day
12h 24m
Waxing Crescent, 3% of the Moon is Illuminated
Sep 17
Waxing Crescent
Sep 22
First Quarter
Sep 29
Full
Oct 8
Last Quarter
Oct 15
New

Hourly Weather History & Observations

Time (CDT) Temp. Windchill Dew Point Humidity Pressure Visibility Wind Dir Wind Speed Gust Speed Precip Events Conditions
12:56 AM 48.9 °F - 44.1 °F 83% 30.04 in - NNW 5.8 mph - N/A   Unknown
1:56 AM 48.9 °F - 44.1 °F 83% 30.06 in - North 10.4 mph - N/A   Unknown
2:56 AM 48.0 °F - 41.0 °F 77% 30.07 in - NNW 10.4 mph - N/A   Unknown
3:56 AM 46.0 °F 41.9 °F 39.9 °F 79% 30.08 in - NNW 8.1 mph - N/A   Unknown
4:56 AM 45.0 °F 41.8 °F 39.0 °F 80% 30.08 in - NNW 5.8 mph - N/A   Unknown
5:56 AM 43.0 °F 38.2 °F 37.9 °F 82% 30.09 in - NNW 8.1 mph - N/A   Unknown
6:56 AM 44.1 °F 39.5 °F 37.9 °F 79% 30.09 in - NW 8.1 mph - N/A   Unknown
7:56 AM 46.0 °F 41.9 °F 37.9 °F 73% 30.09 in - NNW 8.1 mph - N/A   Unknown
8:56 AM 48.9 °F - 37.9 °F 66% 30.10 in - NNW 8.1 mph - N/A   Unknown
9:56 AM 53.1 °F - 37.0 °F 55% 30.10 in - NNW 11.5 mph - N/A   Unknown
10:56 AM 53.1 °F - 36.0 °F 52% 30.09 in - NNE 6.9 mph - N/A   Unknown
11:56 AM 57.0 °F - 36.0 °F 45% 30.07 in - NNW 9.2 mph - N/A   Unknown
12:56 PM 48.0 °F - 46.0 °F 93% 30.09 in - NE 17.3 mph 26.5 mph 0.08 in   Unknown
1:56 PM 50.0 °F - 45.0 °F 83% 30.09 in - NNE 6.9 mph - 0.06 in   Unknown
2:56 PM 55.0 °F - 43.0 °F 64% 30.06 in - North 17.3 mph 23.0 mph N/A   Unknown
3:56 PM 55.9 °F - 42.1 °F 60% 30.06 in - North 12.7 mph 18.4 mph N/A   Unknown
4:56 PM 54.0 °F - 37.0 °F 53% 30.06 in - North 13.8 mph 23.0 mph N/A   Unknown
5:56 PM 48.9 °F - 41.0 °F 74% 30.09 in - North 5.8 mph - N/A   Unknown
6:56 PM 51.1 °F - 42.1 °F 71% 30.08 in - NW 5.8 mph - N/A   Unknown
7:56 PM 44.1 °F 40.8 °F 37.0 °F 76% 30.09 in - North 5.8 mph - N/A   Unknown
8:56 PM 41.0 °F 37.1 °F 36.0 °F 82% 30.10 in - WNW 5.8 mph - N/A   Unknown
9:56 PM 39.9 °F 37.8 °F 36.0 °F 86% 30.10 in - NW 3.5 mph - N/A   Unknown
10:56 PM 37.0 °F 32.4 °F 34.0 °F 89% 30.10 in - NW 5.8 mph - N/A   Unknown
11:56 PM 37.0 °F 34.5 °F 34.0 °F 89% 30.10 in - North 3.5 mph - N/A   Unknown